Regional Weather Roundup
Issued by NWS

Home | Current Version | Previous Version | Text Only | Print | Product List | Glossary Off
Versions: 1 2 3 4 5 6 7 8 9 10 11 12 13 14 15 16 17 18 19 20 21 22 23 24 25 26 27 28 29 30 31 32 33 34 35 36 37 38 39 40 41 42 43 44 45 46 47 48 49 50

000
ASUS45 KCYS 200810
RWRWY

WYOMING REGIONAL WEATHER ROUNDUP
NATIONAL WEATHER SERVICE CHEYENNE WY
200 AM MDT MON APR 20 2015

NOTE:  "FAIR" INDICATES FEW OR NO CLOUDS BELOW 12,000 FEET
WITH NO SIGNIFICANT WEATHER AND/OR OBSTRUCTIONS TO VISIBILITY.

WYZ001-200900-
YELLOWSTONE NATIONAL PARK

CITY           SKY/WX    TMP DP  RH WIND       PRES   REMARKS
LK YELLOWSTONE   N/A     25  20  81 CALM      30.07F
W YELLOWSTONE  NOT AVBL

$$
WYZ002>013-054>058-071-098>099-200900-
NORTHERN WYOMING

CITY           SKY/WX    TMP DP  RH WIND       PRES   REMARKS
JACKSON        FAIR      39  30  70 CALM      30.04F
CODY           FAIR      34  25  69 CALM      30.05S
GREYBULL       CLOUDY    39  15  37 W8        30.04F WCI  33
WORLAND        CLOUDY    37  25  61 SW8       30.04F WCI  31
SHERIDAN       FAIR      26  18  71 SW7       30.04F WCI  18
BUFFALO        CLOUDY    35  17  47 W5        30.04F WCI  31
GILLETTE       CLOUDY    32  20  61 W8        30.02F WCI  25
HULETT         PTSUNNY   32  18  55 W3        30.01F
NEWCASTLE      FAIR      28  21  74 CALM      30.02S

$$
WYZ014>020-022>026-101>103-200900-
CENTRAL WYOMING

CITY           SKY/WX    TMP DP  RH WIND       PRES   REMARKS
BIG PINEY      CLOUDY    36  26  67 S7        30.06R WCI  30
PINEDALE       CLOUDY    34  25  69 CALM      30.05S
DUBOIS         PTSUNNY   30  28  93 SE5       30.04F WCI  25
LANDER         FAIR      33  27  78 W5        30.05F WCI  29
RIVERTON       FAIR      33  26  75 S5        30.06F WCI  29
CASPER         CLOUDY    32  27  81 W6        30.05F WCI  26
DOUGLAS        FAIR      30  24  78 CALM      30.04F

$$
WYZ021-027>030-104>119-200900-
SOUTHERN WYOMING

CITY           SKY/WX    TMP DP  RH WIND       PRES   REMARKS
EVANSTON       FAIR      40  21  46 N6        30.03S
FORT BRIDGER   SUNNY     36  25  64 N6        30.06S WCI  31
ROCK SPRINGS   CLOUDY    32  29  88 E7        30.04S WCI  26
DIXON          CLOUDY    37  32  82 CALM      30.05R
RAWLINS        CLOUDY    29  27  92 E5        30.05F WCI  24
SARATOGA       FLURRIES  28  28 100 NW6       30.05S WCI  22
LARAMIE        LGT SNOW  27  25  92 CALM      30.01F FOG
CHEYENNE       CLOUDY    33  19  56 NW12      30.03S WCI  24
TORRINGTON     CLOUDY    33  22  63 NW9       30.03S WCI  25
PINE BLUFFS    FAIR      28  23  80 N8        30.03F WCI  20

$$


USA.gov is the U.S. government's official web portal to all federal, state and local government web resources and services.